Flag for Spain Weather past 2 weeks in Barcelona, Barcelona, Spain

Now
81 °F

Scattered clouds.


Feels Like: 82 °F
Forecast: 74 / 86 °F
Wind: 18 mph from Northeast

Location: Barcelona Airport

Current Time: Jul 2, 2015 at 8:44:26 PM

Latest Report: Jul 2, 2015 at 8:00 PM


Visibility: N/A

Pressure: 30.12 "Hg

Humidity: 58%

Dew point: 64 °F

Location of BarcelonaLocation

Historic Weather in Barcelona — Graph

°F

Barcelona temperature yesterday

Maximum temperature yesterday: 84 °F (at 2:30 PM)
Minimum temperature yesterday: 72 °F (at 6:00 AM)
Average temperature yesterday: 79 °F

Past Weeks' High & Low Weather Summary

 TemperatureHumidityPressure
High90 °F (Jun 29, 3:00 PM)94% (Jun 27, 2:00 AM)30.18 "Hg (Jun 27, 2:00 AM)
Low66 °F (Jun 18, 5:00 AM)31% (Jun 29, 3:00 PM)29.83 "Hg (Jun 23, 5:30 AM)
Average76 °F69%30.06 "Hg
* Reported Jun 17 7:00 PM — Jul 2 7:30 PM, Barcelona, Weather by CustomWeather, © 2015

Note: Actual official high and low records may vary slightly from our data, if they occured in-between our weather recording intervals... More about our weather records

Advertising

Barcelona weather history for previous 24 hours

 ConditionsComfort  
Time TempWeatherWind HumidityBarometerVisibility
7:30 PM
Thu, Jul 2
81 °FScattered clouds.14 mph58%30.15 "HgN/A
7:00 PM81 °FScattered clouds.12 mph62%30.15 "HgN/A
6:30 PM82 °FScattered clouds.12 mph58%30.15 "HgN/A
6:00 PM82 °FScattered clouds.13 mph58%30.15 "HgN/A
5:30 PM82 °FScattered clouds.13 mph62%30.15 "HgN/A
5:00 PM82 °FScattered clouds.13 mph62%30.15 "HgN/A
4:30 PM82 °FScattered clouds.16 mph66%30.15 "HgN/A
4:00 PM82 °FScattered clouds.14 mph66%30.15 "HgN/A
3:30 PM82 °FScattered clouds.16 mph66%30.12 "HgN/A
3:00 PM82 °FScattered clouds.13 mph66%30.15 "HgN/A
2:30 PM84 °FScattered clouds.14 mph58%30.15 "HgN/A
2:00 PM84 °FScattered clouds.14 mph58%30.15 "HgN/A
1:30 PM84 °FScattered clouds.16 mph55%30.15 "HgN/A
1:00 PM86 °FScattered clouds.13 mph52%30.12 "HgN/A
12:30 PM84 °FScattered clouds.13 mph55%30.15 "HgN/A
12:00 PM82 °FScattered clouds.13 mph58%30.15 "HgN/A
11:30 AM84 °FScattered clouds.15 mph58%30.12 "HgN/A
11:00 AM82 °FScattered clouds.12 mph62%30.12 "HgN/A
10:30 AM82 °FPassing clouds.14 mph62%30.12 "HgN/A
10:00 AM82 °FPassing clouds.14 mph62%30.12 "HgN/A
9:30 AM81 °FPassing clouds.12 mph66%30.12 "HgN/A
9:00 AM81 °FScattered clouds.12 mph62%30.09 "HgN/A
8:30 AM79 °FPassing clouds.5 mph58%30.12 "HgN/A
8:00 AM77 °FPassing clouds.8 mph61%30.09 "HgN/A
7:30 AM77 °FSunny.12 mph69%30.09 "Hg10 mi
7:00 AM75 °FClear.15 mph69%30.09 "Hg10 mi
6:30 AM75 °FClear.12 mph78%30.09 "Hg10 mi
6:00 AM75 °FClear.10 mph83%30.09 "Hg10 mi
5:30 AM75 °FClear.7 mph83%30.09 "Hg10 mi
5:00 AM75 °FClear.10 mph83%30.07 "Hg10 mi
4:30 AM75 °FClear.13 mph83%30.07 "Hg10 mi
4:00 AM77 °FClear.13 mph74%30.07 "Hg10 mi
3:30 AM77 °FClear.8 mph74%30.07 "Hg10 mi
3:00 AM77 °FClear.9 mph74%30.07 "Hg10 mi
2:30 AM77 °FClear.9 mph74%30.07 "Hg10 mi
2:00 AM77 °FClear.9 mph74%30.07 "Hg10 mi
1:30 AM79 °FClear.9 mph74%30.07 "Hg10 mi
1:00 AM77 °FClear.13 mph79%30.07 "Hg10 mi
12:30 AM79 °FClear.15 mph79%30.07 "Hg10 mi
12:00 AM77 °FClear.12 mph83%30.07 "Hg10 mi
11:00 PM
Wed, Jul 1
79 °FClear.12 mph74%30.04 "Hg10 mi
10:30 PM79 °FClear.9 mph74%30.07 "Hg10 mi
10:00 PM79 °FSunny.6 mph74%30.07 "Hg10 mi
9:30 PM79 °FSunny.9 mph74%30.07 "Hg10 mi
9:00 PM79 °FSunny.8 mph74%30.04 "Hg10 mi
8:30 PM79 °FSunny.10 mph79%30.04 "Hg10 mi
8:00 PM81 °FPassing clouds.10 mph74%30.04 "HgN/A
Weather by CustomWeather, © 2015

See weather overviewHow to use our weather pages